GFSNW_prec_cthk_078.txt.gz
RH
87 85 82 90 94 93 90 98 97 98 98 98 95 85 62 53 59 67 65 56 57 64 72 68 74 75 81 79 80 77 74 80 84 83 78 79 77 71 64 66 65 66 62 58
88 87 87 84 88 94 97 98 98 98 93 97 94 70 54 60 59 64 59 56 53 59 70 73 71 73 75 72 71 70 65 71 76 75 70 66 67 64 61 59 60 64 62 56
86 87 89 74 88 97 97 98 97 95 96 97 76 60 54 61 60 62 54 53 53 59 66 66 68 71 71 70 67 66 63 65 61 66 58 62 66 63 60 57 64 61 55 55
80 83 78 73 93 97 94 93 98 95 97 87 64 58 55 57 61 62 54 52 52 56 65 62 65 65 63 59 56 57 59 67 66 64 62 60 60 59 58 60 57 58 55 54
83 74 67 78 88 91 93 96 98 97 66 65 58 60 56 58 63 60 56 53 53 55 57 56 63 61 58 56 49 54 59 67 62 64 59 57 58 57 58 58 57 56 55 54
70 63 69 74 81 88 97 96 96 88 60 55 57 59 57 57 64 64 59 56 53 56 57 55 59 58 58 56 58 58 59 63 64 65 59 54 56 54 57 58 58 59 62 61
62 56 56 67 84 88 94 96 91 66 55 52 55 57 57 59 64 65 63 59 55 58 56 53 55 55 55 56 60 58 58 61 64 66 59 62 53 52 53 59 60 58 60 64
61 57 66 79 87 91 95 95 89 66 52 51 55 60 61 60 63 67 65 63 61 58 55 55 57 56 50 55 54 58 57 60 67 65 67 54 52 53 56 57 59 62 65 64
77 82 76 83 90 97 93 91 66 49 45 53 57 61 59 59 59 63 65 64 62 60 56 53 55 57 54 57 56 56 58 60 64 67 69 65 55 56 57 58 61 61 64 65
88 90 95 97 98 95 92 84 52 42 46 51 56 59 59 58 57 60 60 58 58 57 55 53 52 54 50 54 53 56 58 56 61 61 65 55 49 49 50 54 49 50 53 56
90 91 94 95 96 90 82 65 49 37 41 50 55 54 58 54 52 57 54 53 53 54 54 51 51 50 50 50 48 49 51 54 56 55 55 58 47 48 49 49 51 54 56 59
87 88 92 94 96 93 81 59 39 35 41 50 54 55 54 54 53 57 55 52 52 51 52 50 52 51 50 50 50 48 49 48 51 52 49 47 48 49 50 51 52 55 57 59
87 87 89 91 92 93 76 57 39 35 41 49 51 53 55 55 55 55 53 51 52 50 49 51 51 48 49 49 48 48 48 50 51 50 49 51 51 52 53 55 58 59 58 57
82 84 86 89 84 82 78 60 43 35 38 45 49 50 53 53 52 52 53 52 51 51 49 49 50 49 49 50 49 49 46 49 49 49 49 51 50 52 54 57 55 53 51 48
80 82 84 79 67 64 62 57 41 34 34 39 44 47 49 49 49 50 50 51 50 49 49 51 50 49 49 48 47 46 44 44 47 48 45 48 49 51 53 51 49 47 45 43
80 84 84 75 67 57 56 62 39 35 35 36 44 45 46 47 48 50 50 51 50 49 49 51 49 49 49 48 48 39 40 43 44 45 46 46 46 45 45 47 45 42 42 41
80 83 84 76 71 65 60 53 40 36 36 37 45 45 44 45 46 47 48 47 48 49 50 50 49 47 47 47 45 38 39 41 42 43 43 41 41 41 43 42 39 36 33 32
81 77 70 73 72 70 67 59 45 39 37 38 44 44 43 42 43 45 45 45 44 44 46 45 44 44 46 45 38 38 41 42 40 40 40 38 37 38 36 33 31 29 29 30
83 77 66 67 69 74 72 59 52 43 36 32 38 44 44 42 43 42 41 41 44 44 45 45 42 43 44 36 35 36 39 41 43 43 39 36 36 32 29 29 30 30 31 32
86 79 73 73 72 70 70 60 59 56 45 32 32 39 43 40 42 43 42 42 44 44 43 43 44 41 35 35 36 40 44 45 43 38 34 33 29 28 28 30 31 26 20 16
82 74 72 71 72 70 59 54 47 46 47 39 37 40 43 41 47 44 42 43 46 46 45 47 47 44 37 37 41 45 45 42 37 33 31 29 29 28 27 22 17 15 14 15
81 78 75 73 69 59 62 56 48 46 46 48 41 37 41 47 43 41 41 42 43 44 44 46 47 38 40 42 41 41 39 35 32 30 29 28 26 21 17 14 15 17 17 18
87 82 80 73 66 61 61 51 50 47 41 36 35 41 44 41 38 38 40 39 42 41 44 45 39 39 42 42 41 39 35 32 29 27 26 21 17 14 14 16 18 19 20 22
91 84 80 74 67 61 56 51 49 39 34 35 38 43 36 35 36 35 39 42 42 47 49 41 41 40 42 41 39 35 32 28 26 23 18 14 13 14 16 19 21 22 25 28
96 84 76 73 64 59 57 52 44 38 32 32 37 33 29 33 35 37 40 46 48 43 39 38 37 40 40 38 35 32 29 25 19 15 14 13 14 17 19 23 26 32 36 40
93 83 71 67 71 67 61 55 43 37 35 38 32 30 31 35 35 39 38 37 35 32 37 37 42 39 36 35 32 26 20 16 14 13 12 13 15 18 21 25 31 39 44 50
92 78 75 67 71 68 66 55 43 40 39 35 32 32 31 36 37 37 36 34 31 33 41 43 39 36 33 26 21 17 14 13 12 11 12 14 17 21 26 30 38 49 57 63

GFSNW_prec_cthk_084.txt.gz
RH
66 73 77 83 86 90 83 74 75 87 84 83 96 98 90 81 80 69 63 58 62 64 69 74 77 84 86 85 87 82 77 75 84 80 75 74 75 61 56 56 55 54 51 59
64 60 63 66 72 80 80 78 78 90 94 97 98 86 73 87 80 68 64 61 61 64 67 69 74 77 77 76 76 76 72 73 80 75 69 65 63 59 51 48 47 52 49 59
45 45 49 55 54 66 68 76 84 95 97 97 82 68 86 83 75 67 61 60 61 62 62 63 71 71 71 70 69 67 65 66 65 62 66 65 60 58 52 47 52 45 48 56
40 40 46 55 63 69 74 85 90 90 96 72 63 73 82 71 69 61 56 56 57 57 57 60 64 64 62 60 62 62 61 69 67 60 58 60 59 59 55 53 49 48 49 51
43 49 54 62 74 76 72 70 81 92 78 54 60 67 75 68 65 57 53 52 54 52 53 55 58 55 53 51 50 56 55 65 59 60 49 51 54 54 53 51 50 49 49 50
46 51 58 69 75 74 75 72 47 47 56 50 54 66 67 64 60 57 52 49 49 51 55 54 54 49 47 48 48 48 50 53 57 57 49 45 46 48 50 51 51 50 49 52
52 54 60 72 77 75 69 60 38 35 47 47 53 63 62 62 58 53 52 47 46 52 53 53 52 50 48 46 44 41 42 45 48 50 46 52 44 45 48 48 52 53 55 54
56 59 64 71 73 73 68 42 32 33 41 47 51 58 56 58 58 55 53 49 46 48 49 49 47 45 45 46 44 44 42 43 46 47 43 41 43 44 47 47 46 50 51 52
59 60 64 72 70 64 53 34 29 30 36 44 50 54 54 54 56 53 53 51 48 46 43 41 44 44 44 44 44 43 43 43 43 44 47 42 43 44 45 44 42 44 47 49
64 64 66 68 67 59 49 38 30 29 34 45 49 51 55 54 54 54 54 52 50 47 44 41 40 40 43 39 38 41 41 40 44 42 43 40 40 40 40 40 35 40 40 41
63 65 65 66 62 58 51 43 31 27 32 40 43 47 52 53 53 52 53 53 51 51 47 43 43 41 42 41 39 40 38 38 39 40 41 37 38 40 38 37 38 40 42 43
59 64 67 68 64 60 56 51 40 31 31 36 40 43 48 48 49 50 51 50 47 47 47 44 41 40 40 39 36 39 39 37 37 37 35 36 39 40 40 40 40 42 43 45
58 58 64 68 68 68 63 55 42 35 34 37 38 39 42 45 46 45 47 45 45 43 42 42 43 41 39 38 37 39 39 40 40 39 38 37 39 41 41 42 43 44 45 46
58 58 60 66 69 72 71 48 44 41 39 37 39 38 40 42 44 45 45 46 45 43 43 42 42 42 43 41 41 40 38 41 41 39 37 39 40 41 42 42 43 44 43 43
55 62 61 64 68 73 65 54 44 41 33 32 37 41 41 42 42 45 47 48 47 45 45 44 44 44 45 44 43 39 36 36 37 35 36 37 38 39 41 43 44 43 41 38
47 60 65 62 65 66 64 54 47 46 37 31 33 38 41 42 43 44 46 47 47 47 47 46 46 45 46 45 41 32 33 34 36 36 37 39 40 42 43 43 41 39 36 32
37 53 68 64 49 56 57 48 51 52 42 36 35 36 37 40 43 44 44 45 46 47 49 47 46 47 48 46 39 33 34 35 37 38 40 42 42 41 40 39 36 30 26 24
39 47 67 74 59 52 56 54 54 56 50 42 39 36 36 39 42 45 43 44 45 46 49 47 45 47 47 44 32 32 32 35 36 38 40 39 37 37 35 31 28 25 23 23
40 46 60 76 72 66 61 60 58 59 57 45 42 38 39 39 42 44 45 44 45 46 46 45 46 44 42 30 31 33 33 34 35 37 39 37 37 34 31 27 24 23 24 21
40 45 48 66 76 73 70 68 66 64 65 61 46 37 37 38 42 45 44 45 44 44 41 44 43 36 30 29 30 30 31 34 38 41 40 39 34 29 25 24 24 20 14 12
44 42 48 54 71 74 71 68 66 63 63 61 61 54 44 38 41 42 44 43 44 45 43 45 39 34 27 28 29 30 34 40 42 42 38 31 28 25 24 21 15 13 12 12
45 47 48 55 69 75 72 67 65 65 56 59 61 59 58 51 47 43 44 44 46 43 43 44 38 27 26 26 31 35 37 42 42 36 31 27 25 22 18 13 11 11 12 13
47 50 48 54 60 74 74 69 67 63 59 56 59 59 59 57 55 50 47 46 43 40 46 37 28 25 26 30 32 35 40 40 34 31 28 24 20 16 13 12 12 13 14 17
52 52 54 53 58 56 64 68 70 64 61 58 59 61 55 55 56 55 49 46 41 49 48 30 23 24 28 30 32 38 38 35 32 28 24 19 14 11 11 11 14 17 21 26
59 54 55 50 50 53 64 69 70 68 68 65 66 63 55 52 58 61 58 53 50 40 30 21 22 24 28 32 37 40 36 32 28 23 18 14 12 11 12 15 20 25 29 33
61 56 49 47 50 53 64 75 76 70 68 65 65 68 62 54 51 55 51 44 37 33 27 20 22 26 31 36 42 39 33 28 20 16 13 13 13 14 19 22 25 28 30 31
59 48 47 51 49 53 58 75 76 77 69 68 65 66 63 57 57 50 44 43 32 29 23 23 24 30 34 40 40 34 25 19 15 14 14 14 19 21 22 25 28 28 29 31

GFSNW_prec_cthk_087.txt.gz
RH
55 53 54 53 43 40 46 51 61 75 86 86 95 98 88 77 67 57 60 61 66 72 78 81 80 83 81 79 78 76 73 72 78 76 73 71 75 67 64 67 63 61 58 77
53 51 55 66 65 56 52 57 64 76 82 88 96 88 88 77 66 65 66 64 68 73 74 76 76 74 70 69 74 72 66 64 72 67 66 65 64 59 53 55 57 55 62 71
60 68 70 70 75 72 69 82 87 89 89 90 85 82 85 74 66 64 62 64 66 67 66 67 68 65 63 62 62 62 61 60 64 66 69 66 66 60 50 50 55 47 50 62
60 69 74 73 67 60 57 70 77 73 76 66 66 73 73 65 65 59 57 59 61 60 61 61 59 57 53 52 55 55 56 62 60 53 53 56 53 53 49 49 42 43 43 46
53 60 69 68 62 53 47 50 54 52 52 53 60 64 60 58 57 58 55 54 53 51 55 54 51 48 45 44 48 48 48 55 51 53 44 46 45 44 45 46 44 40 42 44
51 59 64 64 57 49 34 33 45 39 43 48 52 58 57 56 56 53 50 50 50 51 51 50 47 44 42 43 42 41 43 46 50 49 41 41 44 41 42 44 44 46 45 46
52 58 61 59 55 37 33 29 34 35 38 43 49 51 50 50 50 48 47 46 48 50 49 46 44 44 44 43 40 35 36 39 43 50 40 51 39 39 41 42 45 45 46 46
53 58 60 57 53 40 28 27 30 33 34 39 46 45 45 44 45 46 45 44 45 45 45 45 43 42 42 41 39 38 37 38 43 47 38 35 36 37 40 40 39 40 42 43
53 58 59 57 49 36 28 25 27 32 34 38 42 43 43 44 43 43 45 43 41 40 38 37 40 39 39 38 40 37 38 38 41 39 46 39 38 37 38 36 36 35 38 39
58 58 60 57 50 43 38 31 28 31 32 36 40 42 42 44 44 44 44 44 43 40 38 35 34 36 36 36 34 35 36 35 38 40 41 36 36 37 36 37 39 33 35 36
55 59 61 59 53 48 44 39 31 30 33 38 38 39 43 43 43 44 45 45 44 44 42 38 37 35 36 35 33 33 34 33 34 34 35 35 33 34 34 35 33 34 35 36
48 53 58 60 59 55 51 42 37 34 34 36 39 39 41 42 43 45 45 45 42 45 43 38 35 36 34 33 31 34 34 32 36 32 33 30 31 33 34 35 35 36 36 38
34 49 53 58 60 61 62 52 38 36 35 36 38 40 41 41 40 41 43 44 46 44 42 42 41 40 36 34 34 34 34 35 35 35 32 31 32 34 35 36 37 39 40 40
29 34 50 56 61 63 66 54 43 42 41 41 38 37 39 41 40 40 40 40 43 43 42 44 43 42 39 38 37 36 36 36 35 35 32 33 33 34 36 38 39 41 41 41
27 30 36 55 59 63 67 57 48 45 39 35 33 38 38 39 41 41 42 42 45 45 46 46 44 42 41 40 39 34 33 31 35 30 34 33 35 36 38 39 41 42 41 39
27 28 31 43 57 62 64 58 51 48 48 37 37 36 38 41 41 43 43 46 47 47 47 46 45 43 45 43 37 29 29 28 31 32 33 35 37 38 39 41 41 39 36 34
19 28 32 37 47 54 55 50 42 45 49 49 43 37 34 36 41 43 44 45 46 48 47 45 45 45 47 45 36 29 30 31 33 34 35 37 37 39 38 38 37 34 28 24
28 32 35 36 41 52 55 50 48 48 49 49 56 46 36 36 41 44 45 46 47 47 47 44 43 44 44 42 29 30 30 32 33 33 35 35 36 37 36 34 30 26 23 22
33 34 37 38 39 49 57 59 56 56 55 53 56 57 50 40 42 45 46 47 47 46 45 44 45 42 42 29 28 28 29 30 31 33 35 35 35 35 33 29 25 22 22 21
33 34 34 37 36 40 52 62 67 64 65 63 63 64 55 46 45 47 49 47 47 48 41 42 44 37 29 28 28 29 30 30 31 35 37 37 36 33 29 25 23 22 18 14
37 35 35 34 34 36 41 54 63 64 65 66 68 68 70 58 50 47 49 50 47 46 43 43 41 32 24 24 26 27 28 32 34 36 39 37 33 29 24 23 20 16 12 12
41 39 36 37 39 40 42 45 50 63 63 62 63 62 62 66 62 59 54 54 51 50 44 44 39 26 25 23 24 27 31 33 37 43 39 33 29 25 22 18 14 11 11 12
45 42 40 40 40 46 46 45 46 56 59 60 61 61 62 64 68 66 65 64 59 49 47 39 26 23 25 23 24 28 31 37 42 40 33 29 25 22 17 13 11 12 14 17
50 45 43 41 43 40 39 41 43 47 59 68 66 65 65 62 63 65 69 62 58 58 53 32 24 28 30 28 24 28 34 40 39 35 29 25 22 16 13 12 13 17 21 23
55 52 46 42 37 37 36 36 39 46 55 68 74 70 67 70 67 63 64 61 61 51 44 36 32 28 31 26 25 28 34 40 38 32 26 21 15 13 13 16 19 21 23 24
60 54 46 40 38 40 43 43 47 47 56 60 71 75 75 73 74 69 62 58 52 51 43 33 31 34 32 25 24 29 39 41 36 27 20 16 15 16 19 19 21 22 23 22
62 52 44 39 37 39 43 44 43 45 52 63 68 76 71 71 74 73 65 57 43 40 36 33 34 34 33 28 28 43 41 38 28 20 18 16 19 20 20 21 22 23 22 23

GFSNW_prec_cthk_090.txt.gz
RH
60 54 53 56 53 48 57 66 73 82 86 88 91 89 83 72 68 64 60 65 65 67 71 72 73 72 73 74 74 76 77 82 88 79 73 73 73 68 65 79 77 71 80 97
64 55 54 52 64 71 65 64 71 77 86 86 84 79 69 69 66 66 64 65 67 68 67 69 70 70 66 68 71 69 68 69 79 73 71 62 61 54 54 55 60 67 72 85
61 53 51 51 55 58 63 75 83 81 81 79 69 68 68 63 60 61 63 62 62 61 62 61 65 64 61 60 60 58 60 59 64 72 62 59 57 50 47 50 62 60 65 70
59 53 47 42 45 48 53 55 62 65 66 58 57 56 58 57 57 54 54 56 57 56 58 57 55 54 52 53 55 56 54 58 56 51 49 51 48 49 45 46 44 53 57 58
59 55 47 40 35 40 47 47 50 48 48 49 50 50 53 51 51 53 52 52 52 51 55 56 52 48 46 44 47 45 45 54 49 52 41 43 43 41 43 45 46 46 52 56
57 56 46 38 35 33 36 38 39 40 40 45 46 49 49 48 47 48 49 49 47 48 51 48 44 41 41 38 36 36 39 46 50 53 40 40 50 42 42 43 43 48 56 53
56 57 51 37 32 31 29 35 33 35 38 41 44 45 45 44 43 42 43 44 44 45 42 40 39 40 39 38 37 33 35 38 44 51 42 56 39 36 39 41 41 44 48 48
53 59 55 46 28 24 27 27 32 32 35 37 40 39 39 40 39 40 40 39 40 41 40 41 40 40 39 36 33 33 33 37 45 50 51 38 39 38 40 41 42 39 41 43
49 54 57 53 40 29 23 26 31 32 34 39 39 37 36 40 38 38 37 36 36 36 37 36 37 39 35 35 31 30 31 34 40 45 49 41 42 36 35 34 41 37 37 38
44 53 56 55 48 42 33 25 30 34 35 37 39 38 39 38 38 41 38 37 37 35 38 36 36 38 31 36 32 33 33 32 37 41 43 36 34 32 32 36 41 34 34 34
31 41 51 53 51 49 45 35 25 26 33 36 39 40 40 39 40 41 41 39 40 40 42 38 37 35 36 33 30 30 33 35 38 35 37 41 30 30 32 34 31 31 31 32
25 30 38 49 52 50 53 45 36 31 29 34 38 40 41 43 43 44 42 43 42 44 44 39 36 37 35 33 34 34 34 32 39 34 36 32 28 30 31 31 31 31 32 33
22 26 32 39 48 52 56 58 49 35 33 29 34 40 42 44 44 44 46 45 45 44 42 44 43 41 39 38 37 34 32 31 34 32 29 29 29 29 30 31 32 33 34 35
21 25 28 34 41 52 58 59 51 45 43 41 35 31 37 43 45 44 42 43 44 44 44 44 44 43 39 38 37 36 33 34 33 31 29 29 29 30 30 32 34 35 36 37
20 25 28 31 37 44 54 59 50 45 45 42 33 25 27 31 36 43 44 43 44 45 46 49 48 42 43 39 40 37 30 31 34 34 29 30 31 31 31 33 34 36 37 36
20 25 28 32 34 40 47 56 48 45 45 44 49 39 31 34 36 34 39 44 47 49 49 48 47 44 45 48 44 28 26 27 27 29 30 31 32 32 33 35 37 36 35 32
23 20 28 31 35 35 41 40 38 41 40 43 49 52 44 35 33 39 40 41 46 49 52 49 48 46 47 49 41 30 28 29 30 30 33 34 33 34 35 35 35 34 32 27
31 29 32 32 34 34 37 38 36 36 41 42 49 53 52 47 44 40 41 45 44 46 49 48 46 46 45 47 30 28 29 30 31 33 35 34 35 36 36 35 33 30 26 23
35 34 34 34 34 35 38 38 39 39 41 46 50 55 62 58 54 51 47 45 48 46 45 44 47 47 46 30 28 27 28 27 29 31 32 35 35 36 36 34 31 27 23 22
40 35 33 34 31 32 34 38 39 39 41 44 51 55 61 62 67 65 54 55 55 54 48 45 45 37 26 25 27 28 27 26 28 30 32 34 37 39 38 32 27 24 22 18
45 39 36 34 31 32 35 38 42 45 43 42 47 56 65 63 71 75 69 62 59 60 53 49 46 37 25 21 25 28 29 29 30 31 32 37 41 40 33 27 24 21 16 13
51 47 40 37 37 36 40 39 38 42 45 40 40 44 52 59 62 71 74 76 69 64 56 54 46 28 23 22 22 26 29 29 29 30 35 41 40 35 30 24 19 14 13 14
54 51 45 42 43 44 46 41 39 41 38 36 38 46 49 56 61 66 73 76 75 69 68 59 39 28 23 22 22 26 28 28 30 33 37 40 37 32 25 18 14 13 16 19
59 55 53 45 49 43 39 38 39 36 35 37 41 45 50 56 67 70 74 70 69 72 73 58 47 35 27 24 24 27 32 36 33 32 33 37 34 28 19 15 15 19 20 21
62 60 57 52 42 42 38 37 34 34 39 44 44 46 49 57 63 69 74 74 69 65 57 51 51 39 35 34 31 30 32 37 30 29 31 35 30 22 17 17 20 21 21 21
66 62 62 57 47 44 41 37 37 37 42 46 45 47 51 53 59 65 70 75 67 57 56 51 51 41 41 39 37 35 36 34 33 33 32 33 26 21 20 20 21 22 21 21
73 66 62 57 47 45 43 41 39 40 44 49 51 51 47 51 55 55 55 67 65 60 58 51 46 42 38 37 35 36 38 39 38 33 34 31 26 24 22 22 22 22 22 22

GFSNW_prec_cthk_096.txt.gz
RH
37 43 42 43 47 49 55 64 63 64 61 60 64 67 63 60 65 65 63 60 59 62 63 66 65 65 68 69 72 80 79 80 80 70 64 61 62 65 69 79 77 85 89 98
29 36 41 42 43 46 47 48 54 56 53 57 59 60 60 62 63 59 57 58 56 55 55 57 56 58 55 62 66 67 64 66 67 53 53 50 53 52 56 61 68 82 89 96
30 27 32 36 38 38 41 43 48 48 50 58 60 61 61 58 56 56 54 52 51 51 53 55 54 51 53 55 56 56 56 58 56 62 55 53 53 47 47 49 63 69 77 82
35 29 27 28 32 35 37 39 44 47 54 53 57 56 54 54 53 49 49 50 52 49 50 48 51 49 48 49 50 49 48 51 48 46 46 44 44 41 45 49 48 53 59 63
48 31 26 25 26 29 33 38 41 44 46 46 48 48 49 50 48 46 47 49 47 47 48 44 42 42 38 37 36 38 42 47 43 46 38 39 41 38 41 44 45 47 49 50
47 49 30 21 21 22 30 32 36 39 39 42 44 45 42 43 43 43 43 43 42 41 41 38 36 36 36 38 37 37 38 42 44 41 39 39 43 35 39 40 43 45 47 45
37 46 48 32 18 18 25 28 30 32 38 40 40 39 39 39 40 40 39 38 39 37 36 34 33 33 33 34 35 34 35 38 44 46 39 44 38 33 34 38 41 42 43 45
30 34 41 46 36 18 21 26 27 29 34 37 39 39 35 34 35 38 38 36 37 35 34 34 34 36 34 34 34 33 33 38 42 46 49 34 34 36 36 37 36 36 39 42
23 29 34 38 39 39 27 22 27 28 29 32 34 36 37 38 36 34 32 33 34 34 37 35 33 34 34 32 31 31 35 37 41 47 50 40 33 34 31 33 35 31 34 35
21 25 30 34 35 38 40 40 27 25 29 29 32 34 34 36 39 40 38 34 33 34 36 39 38 39 34 34 34 30 33 37 42 44 50 38 31 34 32 36 26 32 32 33
25 22 28 30 33 34 38 40 41 38 25 23 27 30 35 34 36 39 38 38 40 40 41 42 41 42 38 39 34 32 33 37 40 42 45 40 31 32 32 27 30 30 31 33
25 25 25 28 29 32 35 38 42 43 45 39 29 28 33 35 36 37 38 38 40 43 47 49 49 44 43 40 42 33 39 33 32 34 31 28 31 29 28 28 28 30 32 33
29 25 24 28 28 29 32 35 39 44 46 40 38 36 35 36 37 39 41 40 41 41 41 44 48 50 47 48 43 36 32 34 37 33 25 27 27 29 31 31 32 32 34 35
32 29 26 29 29 29 30 33 36 38 42 45 42 40 39 38 39 39 40 42 43 44 43 44 45 44 39 41 38 39 35 35 35 35 30 30 29 29 32 33 34 35 36 37
36 33 29 30 32 31 31 31 35 37 35 35 35 36 38 41 45 44 44 45 47 48 49 49 48 42 43 43 43 39 31 32 38 33 29 31 30 31 33 36 38 37 37 38
41 38 33 33 34 34 34 34 34 36 34 30 30 30 33 36 37 39 42 48 52 55 57 55 51 47 46 49 46 27 26 27 29 30 31 31 31 33 36 37 39 40 41 42
47 41 37 35 39 39 37 38 33 29 28 27 27 27 32 33 33 36 39 44 50 53 58 58 56 56 59 57 42 28 28 28 29 30 33 36 36 35 37 39 41 42 42 41
54 47 43 41 45 43 42 39 38 30 29 29 33 30 31 32 35 39 43 44 47 52 56 61 64 64 65 61 42 38 31 29 30 30 31 33 36 38 40 41 41 40 36 36
64 55 51 51 50 48 45 45 43 40 37 32 32 32 33 35 38 40 43 46 51 52 56 61 65 64 65 47 43 41 41 37 32 33 34 34 37 38 40 40 37 34 34 39
73 64 58 54 52 50 49 46 45 44 43 39 35 30 36 35 41 43 46 47 50 53 52 57 63 63 50 48 45 40 35 38 37 36 36 36 34 34 36 35 34 34 36 36
81 71 61 57 54 50 50 51 51 49 47 41 39 37 38 38 40 41 42 46 49 52 46 53 53 58 50 48 46 43 37 35 34 36 36 33 33 35 36 34 33 33 31 24
84 75 66 62 57 54 54 55 55 53 48 43 43 40 38 37 36 39 45 48 49 50 47 51 51 43 39 42 44 48 52 44 44 42 39 38 37 36 34 32 30 27 21 20
91 81 73 65 62 65 60 56 56 52 44 44 42 41 37 37 37 42 46 50 51 48 51 46 38 28 30 33 38 49 53 52 47 46 42 37 35 33 31 29 23 19 22 31
92 84 77 72 68 62 59 55 50 44 42 43 40 42 42 41 43 46 50 46 49 54 52 38 31 24 25 33 41 44 50 50 46 44 43 40 38 33 29 21 19 21 27 40
93 85 76 66 63 61 58 59 55 49 44 46 47 46 45 47 47 49 50 52 52 47 38 31 22 23 26 30 35 44 51 50 49 47 44 42 40 36 29 26 28 34 47 49
95 87 74 67 69 67 66 63 60 50 49 51 51 53 54 51 49 53 51 50 43 33 33 24 25 26 28 33 40 48 52 49 53 51 50 47 45 40 32 33 44 52 53 52
91 82 77 73 73 68 63 64 60 57 54 57 56 59 53 53 55 53 45 40 32 28 26 25 25 25 26 30 34 40 51 51 45 51 53 52 48 40 37 45 60 58 53 51

GFSNW_prec_cthk_099.txt.gz
RH
32 35 38 38 39 43 47 48 53 52 48 49 53 59 62 61 61 60 61 59 58 64 66 71 72 70 70 69 71 74 71 68 67 55 52 53 56 62 72 83 79 89 90 97
27 27 30 33 32 35 38 42 45 45 42 52 55 56 58 59 57 56 54 54 53 56 59 62 59 60 58 60 60 59 58 57 58 42 42 43 48 51 56 63 68 84 90 88
27 26 25 27 30 31 33 37 45 44 46 51 53 57 56 54 52 51 52 53 51 52 54 53 52 51 52 53 53 51 51 54 49 51 43 45 46 44 44 51 62 64 69 69
34 26 24 24 25 26 26 30 41 46 51 49 50 53 53 52 53 50 50 50 52 50 47 46 47 47 45 44 44 46 45 48 44 41 41 42 42 42 40 48 48 51 52 58
42 36 25 22 21 24 28 28 37 41 42 44 45 45 48 50 48 47 46 48 48 46 44 44 40 40 37 36 36 39 41 45 42 40 35 38 39 38 38 43 43 46 50 49
32 40 41 23 17 19 27 28 30 33 37 39 39 42 41 41 43 42 44 44 43 39 40 38 37 36 36 37 38 37 40 43 45 41 38 39 41 33 34 37 39 39 45 41
24 30 35 42 25 17 24 27 27 28 32 35 38 37 36 36 38 39 38 36 36 35 34 32 32 33 33 35 36 38 39 42 48 48 37 38 31 30 32 35 36 38 39 39
21 24 30 32 35 33 21 23 24 25 29 31 33 35 35 34 34 34 34 32 32 32 32 31 30 33 32 33 36 39 39 42 47 50 51 31 28 30 34 36 32 34 36 38
24 22 26 30 30 31 38 30 23 25 27 27 29 32 33 35 36 35 32 32 32 32 34 33 32 32 31 29 29 33 38 40 44 48 51 38 26 32 31 30 32 30 33 37
27 24 21 27 30 29 30 37 41 32 25 23 26 30 32 32 35 38 36 36 34 34 35 37 37 38 33 37 35 33 38 40 46 48 53 38 29 31 32 30 24 31 30 32
35 26 22 23 27 28 29 29 35 40 42 34 25 24 28 31 33 34 33 35 36 40 41 43 42 44 39 40 36 33 34 39 43 45 49 43 29 34 31 25 26 26 28 30
47 33 25 24 25 26 28 31 31 35 41 44 43 34 30 30 32 34 36 37 39 42 45 49 50 48 47 44 44 34 40 32 31 35 33 26 29 29 29 29 29 30 29 30
56 40 32 24 27 27 26 30 33 34 36 41 42 35 33 37 39 38 39 38 38 42 43 45 46 47 46 50 48 40 34 34 37 34 25 27 26 28 29 31 31 32 32 33
63 51 38 32 29 30 29 28 31 34 33 36 35 38 37 36 39 42 44 44 47 48 51 52 53 51 46 44 38 36 32 34 37 38 29 32 30 29 30 32 33 35 37 38
69 60 46 37 34 32 33 32 33 35 35 31 30 32 32 35 38 39 41 43 45 48 50 53 54 52 55 55 53 51 40 32 38 35 29 32 28 28 29 32 33 36 37 38
76 65 58 44 38 37 37 38 39 39 37 35 30 26 27 28 30 33 37 42 44 46 46 48 47 48 52 56 54 46 44 43 38 35 34 35 33 33 32 31 35 37 38 38
80 70 65 54 43 39 42 42 45 40 36 31 28 26 28 30 33 35 36 39 42 45 47 48 48 50 57 58 59 48 44 47 47 43 40 38 36 37 39 39 37 38 40 41
83 78 71 64 53 47 45 45 45 44 41 37 36 31 28 28 30 33 37 42 44 45 47 49 52 52 58 57 44 45 44 45 45 45 44 42 38 39 41 44 44 42 42 42
85 82 80 74 69 58 51 50 51 51 47 44 41 35 31 33 35 37 41 43 48 48 49 49 49 49 52 41 40 37 37 38 40 41 46 47 45 40 42 45 46 45 39 34
81 88 85 78 76 71 59 56 56 56 55 54 49 38 39 37 40 43 44 45 48 50 48 48 48 40 32 31 32 34 35 35 42 49 48 50 49 44 44 43 41 39 35 33
84 88 87 82 79 72 65 59 59 58 59 55 50 44 42 41 45 45 43 45 48 52 47 50 45 39 28 23 25 24 26 35 40 45 51 56 52 49 44 44 44 39 35 33
85 84 90 87 81 75 71 68 64 63 60 58 54 51 47 47 44 42 45 46 49 51 48 51 47 30 22 22 22 23 27 31 39 42 47 55 53 53 51 52 47 41 34 26
93 90 85 85 81 80 71 69 68 69 61 58 52 54 51 49 46 47 49 50 52 50 54 48 35 23 21 22 20 22 26 31 34 40 40 46 54 54 51 42 35 29 23 22
93 93 88 83 78 68 64 64 64 60 57 54 53 54 51 51 52 51 53 50 51 56 56 42 31 22 21 21 22 25 26 29 34 36 39 41 44 48 46 42 36 29 26 31
98 94 87 72 62 65 61 60 61 63 62 59 55 56 56 58 59 57 55 57 57 53 42 33 23 22 22 21 23 26 28 31 33 35 38 37 38 42 45 39 33 32 36 46
98 92 79 68 67 69 70 70 70 68 65 61 58 62 60 63 63 67 61 57 52 39 36 27 24 24 24 23 24 26 28 30 32 36 37 36 38 39 39 40 38 41 49 60
96 78 77 74 66 64 70 68 71 71 69 66 63 62 58 62 69 69 62 58 40 32 29 27 26 27 28 27 27 28 29 31 33 35 37 40 40 37 37 36 37 48 57 63

GFSNW_prec_cthk_102.txt.gz
RH
23 25 26 27 30 32 37 35 42 38 36 37 46 54 57 58 57 56 57 56 55 58 59 65 69 69 66 65 65 67 65 62 60 50 46 46 51 54 58 70 69 79 90 89
20 21 23 23 25 27 28 31 34 33 32 47 50 51 51 53 52 52 52 54 56 57 60 61 63 59 55 56 59 58 58 58 56 36 36 40 43 47 49 55 61 65 75 71
29 19 18 20 21 23 25 28 34 34 37 43 46 48 49 49 50 50 51 52 51 51 53 55 54 51 50 52 52 52 51 51 48 45 34 38 42 43 45 52 59 55 59 53
33 32 18 17 18 19 21 24 34 37 42 42 44 46 47 48 49 49 48 49 53 54 51 49 47 45 42 43 44 47 48 48 45 41 37 38 37 37 41 47 48 50 42 50
23 30 34 17 15 18 21 24 28 31 35 37 39 43 46 46 46 46 46 48 48 47 47 45 43 40 39 38 37 40 44 46 44 41 34 38 39 36 36 39 42 46 46 47
23 21 28 33 20 16 20 24 27 27 29 32 34 36 36 39 42 42 43 43 43 41 39 38 37 36 35 36 38 38 42 46 47 44 36 37 38 32 32 33 37 40 46 40
34 24 23 29 27 27 21 23 25 25 28 30 31 31 30 30 31 35 35 37 37 36 35 34 33 34 36 37 39 42 43 45 49 50 40 39 25 29 29 33 34 37 38 38
45 33 25 25 27 25 30 25 22 22 25 28 29 30 30 30 29 29 27 28 29 29 31 32 31 31 31 35 38 41 44 46 47 50 53 32 24 29 31 33 29 30 33 36
50 42 31 25 26 25 25 30 33 25 25 23 24 29 31 33 32 31 28 28 29 29 29 29 29 27 28 28 30 36 42 46 49 52 53 35 21 30 32 32 32 25 31 37
53 48 39 27 25 26 24 25 29 39 38 24 24 26 29 31 33 35 33 33 33 34 35 35 36 36 31 34 32 33 40 44 51 54 57 41 28 31 32 34 22 28 29 31
58 52 48 36 27 25 24 24 25 27 36 38 39 34 26 27 31 34 32 35 33 36 36 38 38 40 38 39 34 33 35 41 46 49 54 47 28 31 31 25 24 26 28 29
64 59 53 47 36 27 26 24 25 27 28 32 39 42 44 39 32 31 33 34 36 40 43 45 47 47 46 43 42 34 38 34 34 36 33 28 30 30 29 29 29 29 28 29
67 65 59 54 44 36 29 27 26 27 27 26 28 36 37 38 37 41 44 42 42 44 45 47 49 49 49 51 50 44 43 44 43 36 27 29 30 30 30 34 34 33 32 32
70 71 64 61 53 45 36 32 31 30 30 30 24 26 30 33 34 37 41 43 44 44 46 48 49 51 47 48 44 43 42 44 44 44 37 32 30 32 34 35 35 36 37 37
73 76 66 67 60 54 45 40 35 35 34 32 27 26 27 29 35 37 40 44 46 46 48 52 53 48 51 51 48 45 42 43 48 41 37 39 38 34 35 35 36 36 38 40
74 76 73 69 69 61 57 50 47 45 44 40 35 24 24 24 27 31 36 39 42 48 49 48 47 48 52 53 51 38 37 40 42 40 40 43 41 40 38 33 36 39 41 43
76 78 77 71 73 68 63 59 55 49 44 41 38 32 28 29 31 32 33 36 40 43 47 48 47 47 52 52 48 32 37 39 37 35 37 38 38 42 44 44 40 37 41 45
76 80 80 74 73 77 72 65 62 58 53 47 47 42 34 33 33 33 36 39 42 45 48 51 51 51 53 50 32 33 34 35 34 32 30 32 39 42 43 47 47 46 45 47
78 81 80 77 78 82 81 78 73 68 62 54 52 50 44 42 41 38 40 43 47 49 50 49 50 50 47 32 30 30 31 33 32 32 27 28 30 37 40 45 51 52 55 51
84 83 79 76 76 78 80 80 79 77 74 69 62 56 54 49 51 49 48 52 52 51 47 49 51 42 29 27 25 24 24 24 23 28 30 31 32 35 39 41 46 52 52 53
86 83 81 79 77 75 75 77 79 76 72 65 67 64 64 58 56 52 50 55 55 57 52 52 50 43 27 21 20 22 21 22 24 27 29 31 35 36 35 37 43 46 49 46
93 86 83 80 82 80 77 73 70 77 69 64 68 69 68 61 56 53 56 55 57 58 55 57 51 33 23 21 21 20 20 22 27 27 27 33 33 34 34 36 41 45 39 42
94 96 92 86 84 83 75 67 64 68 66 71 72 73 67 63 58 55 55 59 62 59 63 57 41 28 22 21 21 21 22 24 29 32 31 31 34 36 37 38 36 36 34 32
98 98 96 87 77 68 58 58 60 58 64 67 69 74 70 63 59 58 59 60 62 66 68 56 40 29 26 23 22 22 24 25 27 29 31 32 31 34 37 35 32 28 28 24
98 98 96 78 64 59 58 57 57 60 64 66 67 70 70 69 65 61 61 68 68 64 59 48 36 30 31 28 24 25 25 26 28 30 31 32 32 30 31 32 31 28 24 25
98 98 89 71 72 69 64 63 67 70 72 70 65 69 73 70 67 68 62 63 61 59 56 38 34 33 32 31 29 27 27 28 30 32 33 32 32 33 34 35 34 28 24 28
97 91 76 75 71 72 74 71 74 75 74 76 74 74 71 71 71 67 61 63 56 58 47 39 35 35 34 33 32 32 32 31 31 33 36 36 35 34 34 35 35 31 27 29

GFSNW_prec_cthk_105.txt.gz
RH
20 21 21 23 25 25 24 25 31 34 33 38 47 56 56 54 54 55 56 55 55 58 61 64 66 66 60 57 57 58 57 60 56 49 47 48 49 50 50 58 58 64 69 60
25 18 18 19 21 23 23 25 27 30 31 42 45 46 49 51 52 53 53 55 56 56 59 58 57 54 52 52 53 54 55 56 56 33 38 42 45 47 47 51 56 59 63 48
28 28 16 15 16 19 20 23 28 28 31 35 37 39 44 44 45 47 49 50 49 50 52 52 51 49 46 48 48 49 50 51 48 45 32 35 39 42 46 50 56 51 52 45
30 26 28 14 14 17 19 22 29 30 33 34 35 36 38 40 41 41 41 43 46 48 46 45 44 40 39 40 43 46 48 49 47 44 40 40 39 38 41 46 44 50 39 45
37 32 25 24 17 15 18 23 26 27 30 31 32 33 35 35 36 35 35 37 38 39 40 38 38 38 38 36 38 42 46 50 47 45 36 38 41 38 39 40 39 43 43 39
41 38 33 26 19 21 18 21 23 24 28 30 30 31 31 31 33 32 33 33 34 34 31 31 30 30 31 32 36 39 43 48 50 48 38 38 33 30 34 33 34 35 42 35
46 41 39 34 25 19 24 23 20 21 24 28 29 31 31 31 33 33 32 33 33 30 30 30 30 33 34 36 36 38 41 45 51 52 39 28 21 27 30 32 32 35 36 36
50 46 40 40 33 25 20 21 27 21 21 23 24 27 29 31 32 34 33 32 33 34 33 32 29 27 29 33 38 41 44 47 50 51 52 30 21 28 30 31 29 29 29 32
56 49 47 41 39 32 26 22 20 26 33 22 22 25 28 30 30 32 31 33 33 34 35 34 31 26 25 27 30 37 43 49 52 55 54 35 20 29 30 30 31 26 29 31
59 56 53 48 42 36 30 28 23 21 23 32 34 29 25 26 29 31 31 32 34 35 38 37 37 35 31 33 32 42 46 49 54 56 59 43 30 32 33 32 22 25 28 30
60 62 60 56 49 45 35 29 29 25 21 20 25 33 38 38 36 31 28 31 33 38 40 42 42 44 42 42 37 37 40 47 53 57 62 51 29 32 33 31 30 31 32 32
64 65 67 62 57 51 46 36 31 30 27 21 21 22 30 37 41 44 42 38 41 44 44 46 48 49 48 45 47 39 43 37 37 42 39 34 36 34 31 29 29 29 31 33
70 68 72 68 64 60 54 48 39 35 32 25 23 22 24 27 32 36 40 40 41 44 44 47 50 50 48 50 48 43 39 39 42 40 35 40 40 40 41 41 38 31 32 33
74 72 73 75 68 64 62 57 51 45 42 38 27 26 24 25 26 30 33 35 40 45 47 49 50 49 45 48 44 43 39 40 40 40 40 40 38 35 38 40 44 44 39 34
77 75 76 76 70 69 66 66 59 56 51 46 39 33 31 28 29 30 32 35 38 43 48 50 50 47 48 47 46 42 36 38 41 38 37 36 33 36 39 41 42 45 45 43
78 76 78 80 74 70 66 70 73 65 66 62 52 41 38 35 29 30 32 37 40 41 43 44 45 45 47 50 47 28 28 30 32 34 36 34 33 34 35 39 39 42 45 46
76 77 78 76 80 73 69 68 75 76 72 65 57 49 45 45 42 40 39 36 37 39 42 43 43 45 49 51 44 24 24 27 31 32 31 31 31 31 28 33 39 42 43 46
78 76 78 76 78 76 74 70 68 73 77 73 69 59 54 56 53 51 48 47 46 45 44 46 45 47 48 46 27 25 26 27 28 28 29 27 26 26 24 24 33 37 41 48
78 77 79 79 75 79 77 76 74 74 75 69 71 70 65 64 63 59 58 56 57 54 54 53 53 53 47 29 27 25 26 25 22 22 22 23 21 21 23 26 32 38 40 45
76 80 82 78 77 75 78 77 76 77 75 70 67 69 72 71 73 68 64 63 63 62 57 57 59 52 34 29 26 26 24 23 22 22 21 22 26 25 27 29 32 37 40 43
82 82 83 83 84 83 77 75 74 71 70 64 62 63 69 73 75 75 70 69 67 65 58 61 59 54 39 31 26 23 24 23 21 21 23 25 26 30 30 29 30 34 38 40
89 86 89 90 90 89 85 75 70 70 66 60 62 63 64 68 72 75 79 74 70 66 64 65 60 47 39 33 28 24 24 24 24 25 26 27 29 30 31 31 34 34 39 42
92 93 93 91 90 89 78 70 65 63 58 63 65 67 64 67 68 70 76 73 68 64 66 61 52 45 41 37 33 29 28 28 28 28 28 30 31 31 31 33 35 36 36 34
98 98 95 94 87 73 63 61 59 59 61 64 67 72 69 68 72 72 71 66 66 69 71 61 51 45 40 40 39 34 32 33 31 30 31 32 33 34 33 34 36 35 32 31
88 99 97 84 62 62 63 68 66 67 69 73 73 72 69 71 74 69 65 67 67 63 60 56 50 47 46 44 39 37 36 33 31 32 34 35 37 38 37 37 36 36 34 31
64 83 95 75 67 65 67 70 75 78 79 79 76 79 81 70 71 73 67 66 62 56 60 54 55 48 47 45 43 43 40 36 34 33 35 38 39 40 40 41 39 36 35 34
75 56 53 54 59 69 73 78 83 85 87 89 86 86 78 76 76 70 64 62 61 58 56 57 55 52 52 47 44 44 43 41 39 39 42 42 43 44 44 45 45 42 40 39

GFSNW_prec_cthk_111.txt.gz
RH
40 19 15 16 18 20 21 24 31 26 28 34 36 40 35 36 37 39 40 40 42 45 44 45 44 42 39 38 39 39 36 36 40 34 32 34 37 37 39 41 39 44 42 37
37 39 19 14 15 16 19 23 25 24 25 34 34 37 38 39 40 40 41 41 40 38 38 39 36 36 35 36 37 38 35 38 39 32 29 33 36 32 35 38 41 36 36 28
39 38 37 19 15 15 16 21 27 24 25 29 29 32 33 35 36 36 36 36 35 35 35 35 34 33 33 33 34 35 37 36 37 34 28 33 35 36 41 43 47 36 32 29
42 40 40 35 18 16 16 20 23 24 28 26 27 28 29 30 32 33 34 33 33 33 34 31 29 28 29 31 34 36 38 39 38 33 30 30 31 35 35 38 40 48 29 28
43 42 42 42 34 19 16 22 24 24 25 25 26 26 26 28 29 29 30 31 31 31 32 30 30 29 29 28 35 40 40 42 39 41 29 30 31 31 32 34 34 34 33 31
47 44 43 44 43 34 22 18 20 22 23 24 24 24 25 25 26 27 28 28 28 27 27 28 28 28 28 29 30 36 40 42 46 41 30 34 31 23 25 26 26 27 32 26
43 46 47 43 46 44 37 23 20 20 22 23 23 24 27 27 27 26 27 27 28 26 26 26 25 24 26 27 30 32 38 44 46 48 40 43 25 24 23 25 25 27 29 28
48 46 50 47 47 49 46 38 26 22 18 19 23 24 25 26 27 28 28 27 27 27 26 25 23 23 25 28 32 35 37 43 49 53 45 29 25 26 29 30 25 25 26 26
53 54 52 55 53 52 51 48 43 31 26 20 17 22 28 30 28 26 24 25 25 27 27 27 28 22 20 23 32 34 40 44 47 44 52 36 21 25 28 30 30 24 25 27
54 56 56 59 59 58 56 54 51 48 37 27 22 19 19 24 28 33 37 37 36 37 35 35 29 28 29 26 26 39 42 50 52 51 51 36 25 28 30 30 25 28 31 35
59 58 59 60 60 61 62 59 58 57 56 44 29 26 21 22 24 26 33 37 40 43 41 36 35 33 30 31 24 28 32 40 48 46 49 46 26 30 27 24 27 30 33 35
63 65 62 65 65 65 65 65 63 60 61 60 50 42 29 29 26 26 28 28 31 35 40 39 37 36 35 31 30 29 33 27 27 31 29 25 26 22 26 27 29 32 34 33
69 70 68 68 67 69 69 66 67 68 64 63 57 53 46 35 36 39 38 36 33 34 35 39 39 41 34 36 32 30 30 29 31 27 22 23 25 26 27 29 30 30 30 31
74 71 71 70 69 67 70 69 68 68 68 65 52 53 52 55 57 55 51 51 46 42 43 44 41 37 34 33 28 29 29 30 30 29 25 26 24 25 27 28 28 27 28 29
75 76 74 71 71 69 70 69 65 64 62 63 62 60 61 65 67 64 64 58 57 59 61 59 56 48 45 40 40 34 29 27 32 29 25 26 25 28 28 28 28 29 29 27
71 76 78 73 71 73 73 65 61 62 65 66 63 57 56 56 59 61 58 64 69 71 69 66 64 63 58 53 46 33 28 29 28 28 29 29 30 31 30 29 30 30 29 27
73 74 75 76 73 73 75 72 67 69 69 66 63 56 52 52 52 55 58 63 73 74 74 74 71 72 70 64 55 34 33 36 34 33 35 33 34 32 31 29 28 28 28 26
71 72 75 75 75 75 74 74 75 73 68 65 66 58 53 54 57 58 60 61 64 66 67 69 73 75 76 67 45 41 38 38 37 36 36 35 35 33 32 29 29 28 25 25
75 75 78 79 77 77 75 73 73 73 72 68 65 65 61 55 57 60 61 60 61 61 62 65 66 67 70 54 55 47 42 43 41 38 37 36 33 33 32 30 29 31 30 31
63 72 79 79 77 78 77 74 71 71 72 69 66 64 64 60 61 62 62 63 61 64 59 64 64 54 50 47 50 53 46 44 46 44 38 35 34 34 33 34 36 38 37 37
46 61 73 78 80 80 77 72 72 72 69 67 63 67 68 68 69 72 71 71 68 67 61 64 61 52 45 42 39 41 42 45 44 42 40 37 36 37 38 36 39 40 40 40
46 51 57 66 75 76 77 72 72 72 71 69 69 70 75 76 74 77 77 77 75 73 67 64 60 45 44 42 39 37 38 44 44 43 40 39 43 43 40 40 40 40 41 44
39 51 59 53 58 63 67 67 69 73 72 74 76 77 79 82 85 85 86 83 76 69 71 64 48 49 45 42 39 40 42 41 42 40 43 44 44 44 44 44 42 42 43 46
48 53 56 57 48 54 48 46 52 60 69 75 76 79 83 85 88 89 91 86 83 82 75 62 56 46 44 45 46 49 47 47 46 46 45 44 43 45 48 47 43 44 45 48
50 60 56 42 30 32 32 42 45 50 63 75 89 96 97 96 97 96 96 96 93 80 70 67 58 55 52 55 53 52 51 52 48 45 41 42 46 49 48 50 46 45 47 50
66 56 41 30 32 32 34 35 38 38 44 54 60 73 83 93 96 94 94 94 82 69 71 67 64 61 60 58 60 58 64 57 52 49 53 58 59 60 56 51 53 49 49 58
63 46 34 30 33 31 35 34 37 45 59 65 71 76 78 85 94 92 80 76 61 64 63 64 68 65 64 66 70 72 73 61 56 57 57 59 61 63 64 64 62 64 68 74